sat.trackr.live / text

‹ back to catalog

STARLINK-36924

NORAD 68054 · 2026-041Q

PAYLOAD ACTIVE UNKNOWN

§ Identity

Operator
Country
US
Launch date
2026-03-02
Launch site
AFETR
Launch vehicle
Mass (kg)
RCS (m²)

Purposes: comms

External: N2YO · Heavens-Above · Gunter

§ Orbital elements

Epoch: 2026-09-19T10:35:41.003520Z

Period
93.85 min
Inclination
53.1577°
Eccentricity
0.0001028
Mean motion
15.34410154 rev/d
Perigee alt
462.0 km
Apogee alt
463.4 km
Semi-major
6,840.8 km
B*
5.7108e-4
RAAN
224.8898°
Arg perigee
109.6207°
Mean anomaly
250.4907°
Rev number
3,112

§ Raw data

STARLINK-369241 68054U 26041Q   26262.44144680  .00018974  00000+0  57108-3 0  99972 68054  53.1577 224.8898 0001028 109.6207 250.4907 15.34410154 31122

JSON: /api/v1/satellites/68054 · /tle

For live sub-satellite position, see the globe view (requires WebGL).

§ Visibility from observer

Set your observer location to see the next 7 days of passes ≥ 10°. The values pass through the URL so the page stays shareable.

No JS? Fill the form by hand. The geolocation button needs JavaScript.